User: anonymous   Login
Location: Ash Swamp
(41.5170°N, 74.6157°W)
Time: 09:56:12
(UTC+00:00)
Language:

IRIDIUM 103 - Orbit

View from above orbital plane
View from above orbital plane
View from above satellite
View from above satellite

Ground track
Ground track

The orbit data is extracted from the following two-line orbital elements,

1 41918U 17003B   20270.86451727 +.00000100 +00000-0 +28732-4 0  9992
2 41918 086.3961 241.4562 0002521 079.7124 280.4356 14.34216880193774
Epoch (UTC): 26 September 2020 20:44:54
Eccentricity: 0.0002521
inclination: 86.3961°
perigee height: 776 km
apogee height: 779 km
right ascension of ascending node: 241.4562°
argument of perigee: 79.7124°
revolutions per day: 14.34216880
mean anomaly at epoch: 280.4356°
orbit number at epoch: 19377

The dashed part of the orbit path shows where the satellite is in the earth's shadow,  

DLR